Weather Service Report


432 
ASUS44 KJAN 241310
RWRMS 

MISSISSIPPI HOURLY WEATHER ROUNDUP
NATIONAL WEATHER SERVICE JACKSON MS
800 AM CDT MON JUL 24 2017

NOTE: "FAIR: INDICATES FEW OR NO CLOUDS BELOW 12,000 FEET WITH NO
SIGNIFICANT WEATHER AND/OR OBSTRUCTIONS TO VISIBILITY.

MSZ001>002-007>008-010>013-018>021-025>028-034>036-241400-
NORTHWEST MISSISSIPPI
  
CITY           SKY/WX    TMP DP  RH WIND       PRES   REMARKS
BATESVILLE     CLOUDY    76  73  88 CALM      29.98R                  
CLARKSDALE       N/A     77  77 100 SE6       29.96R                  
CLEVELAND      CLOUDY    76  76 100 S5        29.96R FOG              
GREENWOOD      CLOUDY    76  75  97 SW7       29.97R                  
GREENVILLE     PTSUNNY   78  73  84 S7        29.95S                  
OLIVE BRANCH   PTSUNNY  N/A N/A N/A SE6       29.95S                  
OXFORD         CLOUDY    75  73  94 CALM      29.99R                  
TUNICA           N/A     73  72  94 SE3       29.96R                  
WINONA         CLOUDY    75  75 100 S6        29.98R                  
$$

MSZ003>006-009-014>017-022>024-029>033-037>039-241400-
NORTHEAST MISSISSIPPI
  
CITY           SKY/WX    TMP DP  RH WIND       PRES   REMARKS
COLUMBUS AFB   CLOUDY    76  76 100 S5        29.96R                  
CORINTH        DRIZZLE   79  73  83 CALM      29.95F                  
GOLDN TRIANGLE CLOUDY    77  70  78 W5        29.94R FOG              
STARKVILLE     CLOUDY    75  72  88 SW3       29.99R                  
TUPELO         CLOUDY    78  73  84 CALM      29.96S                  
$$

MSZ040-058-241400-
CENTRAL MISSISSIPPI
  
CITY           SKY/WX    TMP DP  RH WIND       PRES   REMARKS
JACKSON INTL   PTSUNNY   78  75  90 S3        29.98S                  
JACKSON HAWKNS CLOUDY    77  76  96 MISG      29.98S                  
MADISON        FAIR      77  72  83 CALM      29.98R                  
MERIDIAN KEY   CLOUDY    78  75  90 SW3       30.00R                  
MERIDIAN NAS   CLOUDY    78  71  79 SW3       29.99R                  
RAYMOND        FAIR      77  75  94 MISG      29.97S FOG              
$$

MSZ059>079-241400-
SOUTH MISSISSIPPI
  
CITY           SKY/WX    TMP DP  RH WIND       PRES   REMARKS
COLUMBIA       LGT RAIN  73  73 100 S7        30.03R                  
HATTIESBURG    TSTM      74  74 100 VRB3      30.01R FOG              
LAUREL         CLOUDY    76  76 100 SW5       30.00S                  
MCCOMB         CLOUDY    77  75  93 CALM      29.99R FOG              
NATCHEZ        NOT AVBL                                               
PINE BELT      CLOUDY    73  72  94 VRB5      30.00F                  
$$

MSZ080>082-241400-
COASTAL MISSISSIPPI
  
CITY           SKY/WX    TMP DP  RH WIND       PRES   REMARKS
BAY ST LOUIS   PTSUNNY   77  75  94 CALM      30.00R                  
BILOXI         CLOUDY    80  76  88 NW5       30.00R THUNDER          
PASCAGOULA     LGT RAIN  76  72  87 SW6       30.02R FOG              
GULFPORT       CLOUDY    80  78  94 NW5       29.99S                  
$$

LAZ007>009-015>016-023>026-241400-
NORTHEAST LOUISIANA
  
CITY           SKY/WX    TMP DP  RH WIND       PRES   REMARKS
BASTROP        CLOUDY    74  74  98 CALM      29.97S                  
TALLULAH/VBURG NOT AVBL                                               
VIDALIA        PTSUNNY   76  76  99 SW6       29.97R                  
$$
  

Return to Home page


Western Regional Climate Center, wrcc@dri.edu